Date,TemperatureHighF,TemperatureAvgF,TemperatureLowF,DewpointHighF,DewpointAvgF,DewpointLowF,HumidityHigh,HumidityAvg,HumidityLow,PressureMaxIn,PressureMinIn,WindSpeedMaxMPH,WindSpeedAvgMPH,GustSpeedMaxMPH,PrecipitationSumIn
2014-1-1,-0.6,-4.0,-8.6,-7.2,-10.5,-14.7,76,73,69,30.67,30.58,7,4,11,0.00
2014-1-2,-0.1,-6.5,-13.3,-8.5,-13.1,-17.9,92,73,59,30.70,30.53,5,2,8,0.00
2014-1-3,31.1,11.2,-12.7,29.0,7.5,-17.6,92,85,75,30.53,29.53,14,7,22,0.12
2014-1-4,35.7,11.2,-4.0,33.1,6.0,-9.1,93,79,66,30.43,29.53,16,7,19,0.03
2014-1-5,-4.1,-11.2,-20.2,-9.2,-17.0,-26.2,81,75,67,30.60,30.42,13,5,18,0.00
2014-1-6,-12.9,-17.2,-21.4,-17.8,-22.9,-27.1,78,74,71,30.56,30.40,13,7,17,0.00
2014-1-7,4.7,-3.6,-12.8,-2.8,-9.4,-17.7,80,75,69,30.45,30.32,6,3,7,0.00
2014-1-8,1.5,-5.1,-11.3,-6.3,-10.5,-15.7,83,77,67,30.65,30.45,4,1,6,0.00
2014-1-9,20.2,11.1,-3.6,15.7,6.9,-8.0,92,83,76,30.59,29.98,12,4,15,0.00
2014-1-10,29.8,25.3,16.5,28.3,23.5,13.6,94,93,88,29.99,29.59,9,4,12,0.00
2014-1-11,29.4,24.2,17.5,26.6,22.1,15.6,94,91,86,29.78,29.58,10,4,18,0.00
2014-1-12,39.4,32.6,20.7,33.6,28.5,18.5,92,85,80,29.70,29.40,7,4,10,0.00
2014-1-13,33.3,27.9,22.5,29.6,23.7,18.5,92,84,77,29.79,29.59,9,5,13,0.00
2014-1-14,29.0,18.5,7.2,27.2,14.6,2.1,98,84,77,30.29,29.57,11,6,16,0.05
2014-1-15,34.7,14.1,5.2,29.2,9.8,0.7,92,83,78,30.30,29.55,14,7,19,0.00
2014-1-16,35.8,16.6,4.2,31.6,11.5,-1.6,93,80,70,30.07,29.50,12,9,20,0.00
2014-1-17,13.3,4.1,-3.1,7.4,-0.7,-7.5,86,80,74,30.24,29.88,8,4,15,0.00
2014-1-18,19.9,15.8,12.9,16.3,12.4,7.9,92,86,78,30.12,29.61,11,6,14,0.04
2014-1-19,37.1,29.6,19.4,30.8,25.1,16.7,98,84,77,29.86,29.54,11,6,17,0.00
2014-1-20,27.9,13.4,-7.8,24.7,7.5,-14.3,91,77,57,30.61,29.83,13,7,21,0.00
2014-1-21,8.0,-6.0,-18.0,4.7,-10.8,-23.0,86,79,72,30.65,30.16,9,3,11,0.00
2014-1-22,8.8,0.3,-12.2,5.3,-5.0,-17.4,86,78,71,30.72,30.15,11,6,19,0.00
2014-1-23,4.4,-8.6,-16.8,-2.3,-13.7,-21.5,82,78,72,30.95,30.34,13,5,17,0.00
2014-1-24,34.6,26.0,4.9,32.1,20.4,-2.2,93,79,66,30.33,29.63,14,9,18,0.00
2014-1-25,25.5,7.4,1.0,15.7,-1.6,-7.0,88,67,52,30.09,29.60,11,6,15,0.00
2014-1-26,17.3,6.8,-8.8,14.1,2.6,-15.3,90,83,73,30.29,29.52,14,8,22,0.04
2014-1-27,-7.7,-11.6,-15.4,-14.6,-17.8,-21.7,79,73,68,30.64,30.30,10,6,16,0.00
2014-1-28,0.8,-7.3,-15.0,-5.3,-13.2,-19.6,80,75,67,30.59,30.30,12,5,12,0.00
2014-1-29,31.1,12.2,-7.2,22.1,5.4,-12.2,83,74,65,30.29,29.68,13,5,16,0.00
2014-1-30,24.5,11.1,-6.2,19.1,6.5,-10.8,91,81,70,30.22,29.57,13,7,19,0.02
2014-1-31,9.2,-1.1,-10.9,2.2,-6.2,-15.6,83,79,70,30.32,30.15,9,2,12,0.00
2014-2-1,18.0,8.3,-3.7,11.0,3.1,-8.1,86,79,70,30.40,30.05,9,4,12,0.00
2014-2-2,12.7,1.2,-9.6,6.3,-3.5,-13.9,84,80,74,30.45,30.33,8,2,12,0.00
2014-2-3,15.7,6.2,-2.8,7.3,1.0,-6.6,86,79,67,30.52,30.31,4,1,6,0.00
2014-2-4,5.6,2.0,-1.5,0.1,-5.3,-9.7,92,71,58,30.67,30.53,10,4,13,0.00
2014-2-5,4.2,-1.2,-8.1,-2.0,-7.5,-12.2,82,74,67,30.74,30.67,8,5,10,0.00
2014-2-6,4.1,-4.3,-12.0,-2.9,-9.6,-16.2,94,78,69,30.68,30.41,12,6,17,0.00
2014-2-7,13.1,2.1,-6.1,2.9,-4.5,-11.8,92,74,61,30.41,30.29,11,6,15,0.00
2014-2-8,16.4,5.7,-3.1,9.8,1.6,-7.1,86,83,74,30.35,30.23,4,1,6,0.00
2014-2-9,4.3,-2.7,-9.6,-2.5,-8.2,-14.8,92,77,69,30.61,30.35,10,4,15,0.00
2014-2-10,3.4,-6.0,-13.6,-4.2,-11.4,-18.0,92,77,69,30.69,30.61,5,2,8,0.00
2014-2-11,14.7,2.4,-11.3,10.5,-2.4,-16.2,83,80,75,30.65,30.18,10,4,18,0.00
2014-2-12,20.3,16.7,14.5,16.4,13.3,9.4,91,86,74,30.25,29.85,7,4,10,0.02
2014-2-13,31.9,14.1,2.4,27.9,10.4,-1.8,92,85,78,29.91,29.54,17,8,24,0.00
2014-2-14,13.0,5.0,-0.6,5.6,-0.1,-4.3,92,79,71,30.21,29.90,8,4,10,0.00
2014-2-15,19.9,11.8,-0.9,16.7,8.5,-4.5,90,86,82,30.21,29.88,8,3,10,0.02
2014-2-16,20.5,13.5,4.5,16.7,8.9,1.0,88,82,74,30.37,30.03,10,5,20,0.00
2014-2-17,32.4,23.9,19.8,29.0,21.3,16.8,93,90,85,30.03,29.77,11,5,19,0.05
2014-2-18,37.9,29.3,21.2,31.4,24.6,17.7,92,83,71,29.89,29.64,8,4,10,0.00
2014-2-19,37.5,29.9,18.6,33.3,26.5,16.7,93,87,80,29.93,29.72,7,3,11,0.00
2014-2-20,36.2,28.8,12.5,31.7,26.2,10.1,94,90,80,29.72,29.46,10,4,15,0.40
2014-2-21,16.8,10.3,3.3,12.3,6.6,0.1,90,85,81,29.95,29.52,14,10,24,0.00
2014-2-22,14.7,7.8,1.4,9.5,2.9,-2.6,84,80,75,30.31,29.95,11,6,14,0.00
2014-2-23,16.7,7.4,-1.8,10.2,2.3,-5.2,86,80,74,30.46,30.32,12,5,16,0.00
2014-2-24,8.9,2.7,-5.1,3.6,-2.3,-9.2,85,79,71,30.53,30.45,7,4,11,0.00
2014-2-25,5.1,-3.2,-9.8,-2.6,-8.8,-14.5,91,77,68,30.58,30.47,11,5,14,0.00
2014-2-26,20.3,2.3,-11.9,11.5,-4.1,-16.1,82,74,61,30.56,29.83,18,9,24,0.00
2014-2-27,-2.6,-8.6,-14.7,-12.1,-18.4,-22.9,74,61,48,30.38,30.14,7,3,11,0.00
2014-2-28,17.2,3.1,-10.6,11.3,-3.3,-17.8,82,74,68,30.38,30.06,10,6,13,0.00
2014-3-1,-0.2,-4.5,-9.9,-6.2,-13.0,-17.1,76,66,54,30.74,30.38,9,6,13,0.00
2014-3-2,3.2,-7.2,-16.9,-6.7,-14.7,-23.2,83,69,58,30.78,30.70,8,4,15,0.00
2014-3-3,7.7,0.5,-10.7,4.1,-5.1,-15.6,89,77,70,30.74,30.38,6,2,8,0.00
2014-3-4,17.0,11.7,7.1,11.7,7.5,3.5,88,83,72,30.44,30.29,9,4,11,0.03
2014-3-5,21.4,15.5,10.7,15.3,10.7,6.8,88,81,73,30.57,30.43,9,3,11,0.00
2014-3-6,25.9,20.5,10.7,23.9,17.8,7.3,92,89,86,30.43,29.88,9,4,15,0.00
2014-3-7,31.9,25.9,17.0,29.8,22.0,13.3,93,85,78,30.32,29.86,10,4,14,0.00
2014-3-8,24.0,16.9,8.5,18.2,12.1,4.9,92,81,69,30.47,30.27,8,3,11,0.00
2014-3-9,41.6,31.6,14.4,36.1,26.7,11.2,88,82,75,30.26,29.75,10,5,13,0.00
2014-3-10,46.6,41.6,37.4,38.6,36.0,33.3,85,80,73,29.79,29.70,8,3,11,0.00
2014-3-11,43.6,37.4,27.5,36.6,30.4,22.1,92,76,59,30.14,29.78,11,5,15,0.08
2014-3-12,27.5,23.1,16.5,22.1,15.1,9.9,82,71,60,30.25,30.13,8,4,11,0.00
2014-3-13,49.5,38.0,25.5,42.6,33.4,20.8,92,83,76,30.12,29.61,9,4,10,0.00
2014-3-14,42.6,35.9,27.1,37.1,30.6,22.3,88,81,67,30.07,29.60,13,6,16,0.00
2014-3-15,29.0,24.8,21.0,22.1,16.2,10.5,82,70,55,30.53,30.07,9,6,14,0.00
2014-3-16,26.5,20.2,12.4,21.7,10.2,3.1,82,65,52,30.61,30.09,6,4,12,0.00
2014-3-17,40.1,32.1,26.3,32.7,26.9,21.4,92,81,73,30.08,29.59,11,7,20,0.01
2014-3-18,32.4,30.0,27.2,28.3,26.8,24.8,94,88,80,29.93,29.67,12,8,18,0.05
2014-3-19,35.4,31.1,26.6,29.8,27.3,24.5,93,86,75,30.09,29.92,10,5,15,0.00
2014-3-20,46.0,36.1,26.7,37.9,31.4,24.9,93,83,68,30.09,29.92,6,2,9,0.00
2014-3-21,41.6,33.2,16.9,37.4,28.2,10.1,88,82,68,30.31,29.80,14,7,24,0.00
2014-3-22,22.3,14.8,8.0,11.1,6.6,1.5,78,70,58,30.66,30.31,10,7,15,0.00
2014-3-23,26.9,18.5,9.8,14.6,9.5,4.7,84,68,54,30.67,30.47,8,3,11,0.00
2014-3-24,32.5,25.3,19.9,25.5,16.4,11.0,88,69,46,30.48,30.25,12,5,16,0.00
2014-3-25,25.4,18.3,10.3,16.6,7.9,2.5,82,64,50,30.44,30.26,10,5,15,0.00
2014-3-26,45.6,31.6,15.3,33.8,22.0,10.2,83,68,53,30.27,29.59,11,6,18,0.00
2014-3-27,42.8,37.0,31.0,39.5,34.7,27.4,94,91,76,29.87,29.50,12,3,14,0.24
2014-3-28,33.9,29.2,22.8,27.5,22.3,17.8,86,76,62,30.37,29.87,7,1,8,0.00
2014-3-29,43.4,32.7,20.5,32.8,24.2,16.4,92,72,51,30.39,30.08,8,2,15,0.00
2014-3-30,61.2,47.0,36.2,47.4,39.4,32.0,86,75,56,30.08,29.77,9,4,12,0.00
2014-3-31,60.6,47.6,31.7,53.3,41.8,29.6,92,80,65,29.76,29.34,15,7,21,0.00
2014-4-1,33.1,25.8,19.0,30.7,21.2,14.8,94,83,76,30.24,29.44,13,8,20,0.00
2014-4-2,41.2,29.4,19.8,27.4,21.4,15.7,87,73,53,30.30,30.15,8,4,13,0.00
2014-4-3,35.0,32.2,27.2,33.8,30.1,25.7,100,92,84,30.05,29.90,10,4,15,0.11
2014-4-4,41.2,32.1,26.3,31.7,28.0,24.8,94,86,60,30.16,29.84,11,4,18,0.15
2014-4-5,46.0,34.6,20.9,41.1,30.7,18.8,93,86,77,30.19,30.00,9,3,14,0.00
2014-4-6,61.0,47.0,34.9,49.9,39.3,31.5,88,76,51,30.00,29.86,8,4,11,0.00
2014-4-7,58.2,48.4,39.0,44.1,38.4,31.8,93,71,42,29.91,29.82,12,4,19,0.00
2014-4-8,51.3,42.2,33.9,36.3,32.3,29.6,89,69,45,30.08,29.91,8,4,15,0.00
2014-4-9,70.8,52.5,33.4,53.8,40.5,29.3,86,65,48,30.04,29.54,14,7,20,0.00
2014-4-10,59.5,51.0,41.0,45.6,33.2,24.9,79,53,28,29.98,29.62,12,6,17,0.00
2014-4-11,62.6,51.1,39.1,40.1,35.9,31.5,83,58,36,30.02,29.90,7,2,9,0.00
2014-4-12,58.5,50.9,45.0,48.3,42.5,36.3,86,74,53,29.91,29.72,13,7,18,0.01
2014-4-13,45.8,38.8,32.0,41.6,32.3,22.0,90,78,61,30.06,29.77,15,9,30,0.00
2014-4-14,36.9,29.9,23.1,22.9,14.6,9.7,70,54,35,30.25,30.06,15,9,26,0.00
2014-4-15,37.1,27.4,16.2,17.6,11.2,6.3,79,53,31,30.30,30.11,7,4,10,0.00
2014-4-16,34.7,31.4,28.1,30.1,25.1,17.6,94,79,52,30.12,29.93,13,9,21,0.13
2014-4-17,39.0,31.2,25.3,30.2,26.5,22.9,93,83,60,30.42,30.12,11,5,15,0.00
2014-4-18,50.6,38.8,25.0,37.7,30.9,22.2,91,74,58,30.45,30.20,12,5,17,0.00
2014-4-19,67.6,52.9,43.4,52.5,43.3,33.6,82,70,57,30.20,30.01,12,5,17,0.00
2014-4-20,74.2,59.9,40.2,48.0,43.0,37.5,93,59,27,30.09,29.95,6,2,8,0.00
2014-4-21,62.5,56.7,44.8,56.0,44.3,34.3,91,64,48,30.15,29.89,11,5,17,0.22
2014-4-22,58.0,48.8,38.4,39.3,35.2,31.9,83,61,40,30.22,30.09,7,3,10,0.00
2014-4-23,47.7,42.7,39.6,38.9,35.0,29.1,92,75,51,30.12,29.92,11,7,20,0.24
2014-4-24,49.7,42.9,39.1,43.8,39.9,36.9,93,89,79,29.93,29.76,8,4,15,0.14
2014-4-25,65.2,50.0,37.7,48.9,40.9,35.9,93,74,39,29.97,29.78,11,4,20,0.00
2014-4-26,53.7,45.3,36.6,40.0,35.0,32.2,85,68,48,30.05,29.88,13,8,21,0.00
2014-4-27,46.7,41.0,37.9,39.8,37.7,35.5,94,88,72,29.92,29.59,17,11,26,0.69
2014-4-28,43.4,41.9,40.8,40.7,39.6,38.1,93,91,88,29.74,29.61,15,10,20,0.89
2014-4-29,41.6,38.2,35.5,39.0,35.5,33.4,93,90,85,29.88,29.71,16,11,24,0.31
2014-4-30,44.5,40.1,36.2,40.3,37.0,34.1,93,89,80,29.88,29.85,12,7,18,0.08
2014-5-1,48.3,42.3,37.6,43.3,38.5,35.3,92,86,77,29.93,29.83,8,5,14,0.07
2014-5-2,59.2,48.3,37.7,46.1,40.1,35.2,91,75,47,29.92,29.67,13,5,18,0.00
2014-5-3,58.1,48.8,39.1,42.5,37.0,33.5,87,65,40,30.05,29.80,11,5,18,0.00
2014-5-4,55.6,46.1,35.7,36.3,31.3,28.3,79,58,36,30.20,30.03,9,4,13,0.00
2014-5-5,64.9,56.5,47.9,40.9,37.7,34.2,63,50,38,30.05,29.94,7,3,9,0.00
2014-5-6,64.3,56.5,46.3,43.0,39.2,35.4,73,53,40,30.01,29.77,12,6,22,0.00
2014-5-7,63.2,58.0,51.7,52.3,46.2,40.3,79,65,56,29.81,29.67,10,7,19,0.00
2014-5-8,60.7,55.5,50.1,56.6,52.5,48.2,94,90,78,29.78,29.53,12,5,18,1.00
2014-5-9,56.8,49.9,43.5,55.1,44.4,39.9,94,82,58,29.87,29.53,14,8,21,0.00
2014-5-10,69.5,54.2,38.1,54.9,46.3,35.9,93,77,52,29.93,29.75,13,4,18,0.19
2014-5-11,65.0,57.2,47.6,57.9,52.5,45.5,98,85,71,29.93,29.77,9,3,13,0.67
2014-5-12,56.6,51.1,46.4,54.6,49.2,44.0,94,93,91,29.92,29.71,10,5,16,0.77
2014-5-13,53.6,47.0,42.2,44.0,39.9,35.9,91,77,53,30.27,29.91,11,6,16,0.00
2014-5-14,57.7,47.0,37.4,42.1,35.5,31.2,87,66,43,30.30,30.23,8,4,15,0.00
2014-5-15,46.0,42.7,38.6,33.4,32.1,29.0,79,66,52,30.29,30.20,11,6,17,0.00
2014-5-16,54.2,46.3,38.6,34.7,29.9,23.4,79,55,32,30.20,30.12,6,2,9,0.00
2014-5-17,68.4,53.9,38.1,39.4,32.3,25.9,72,47,23,30.14,30.03,10,3,11,0.00
2014-5-18,73.7,61.6,47.4,46.6,39.4,33.1,67,46,30,30.11,29.96,16,5,19,0.00
2014-5-19,61.0,55.4,51.7,53.1,49.1,42.6,94,81,51,30.00,29.76,11,6,18,1.28
2014-5-20,78.0,62.8,52.3,63.0,55.3,50.5,94,79,43,29.93,29.77,6,1,7,0.01
2014-5-21,64.1,58.3,50.0,56.3,48.7,46.0,87,71,57,30.19,29.89,8,4,13,0.00
2014-5-22,72.5,59.3,47.4,48.7,45.1,40.4,87,63,34,30.26,30.18,7,2,9,0.00
2014-5-23,79.9,66.1,48.5,50.6,46.2,42.9,83,52,30,30.27,30.11,6,2,8,0.00
2014-5-24,83.6,71.3,58.0,52.9,49.1,45.2,65,47,31,30.15,30.00,9,3,13,0.00
2014-5-25,78.9,69.9,56.3,65.0,57.3,46.8,81,65,52,30.05,29.88,10,2,17,0.00
2014-5-26,82.9,70.4,62.6,68.3,64.4,60.2,93,83,56,29.92,29.85,9,2,12,1.40
2014-5-27,74.2,67.4,62.5,67.0,63.7,59.5,94,88,72,30.01,29.89,8,3,15,0.14
2014-5-28,80.3,68.9,56.7,66.0,59.3,50.5,90,73,52,30.10,30.00,6,3,10,0.00
2014-5-29,84.4,72.7,58.0,60.0,52.8,45.2,93,54,27,30.13,30.02,7,2,13,0.00
2014-5-30,89.5,77.4,66.4,69.5,62.7,48.9,89,62,45,30.11,29.97,8,2,9,0.11
2014-5-31,80.5,71.8,65.4,71.2,67.2,63.1,93,86,67,30.03,29.84,13,2,13,0.54
2014-6-1,76.6,68.0,63.2,71.7,65.3,61.1,94,91,82,29.89,29.70,10,4,15,1.12
2014-6-2,76.6,67.5,59.8,67.1,61.6,54.3,94,82,64,29.91,29.69,15,6,27,0.42
2014-6-3,74.8,64.8,53.6,58.7,55.9,51.3,93,74,51,30.01,29.84,6,2,13,0.00
2014-6-4,81.2,70.3,60.1,59.7,56.7,52.7,89,65,39,29.91,29.83,5,2,9,0.00
2014-6-5,70.1,65.9,60.3,62.7,60.2,56.9,93,82,69,29.92,29.83,12,4,19,0.07
2014-6-6,84.8,70.4,56.8,68.2,60.7,54.9,94,74,45,29.96,29.89,8,2,12,0.00
2014-6-7,65.9,59.0,52.5,56.4,52.3,47.9,93,79,54,30.11,29.91,13,5,21,0.42
2014-6-8,70.2,62.0,49.7,52.1,46.6,41.1,93,61,37,30.17,30.08,6,1,10,0.00
2014-6-9,70.7,63.1,56.5,55.7,52.4,45.6,89,69,54,30.10,29.99,4,1,7,0.05
2014-6-10,77.9,67.1,52.9,60.9,56.1,50.9,93,70,49,29.99,29.85,5,2,13,0.00
2014-6-11,82.9,72.0,63.4,63.0,59.2,55.7,93,66,47,29.88,29.62,8,3,12,0.52
2014-6-12,65.8,58.7,53.7,63.7,50.5,45.8,93,75,53,30.03,29.66,10,5,18,0.00
2014-6-13,76.9,64.6,50.3,53.2,48.6,44.8,85,59,32,30.09,29.87,5,2,8,0.00
2014-6-14,65.9,61.4,56.0,60.3,54.8,47.6,93,80,54,29.93,29.66,9,3,16,1.02
2014-6-15,75.5,65.0,57.7,61.3,57.9,55.7,94,79,52,29.84,29.50,14,7,22,0.61
2014-6-16,83.5,68.5,57.6,68.8,60.1,54.2,92,76,55,29.90,29.61,12,4,20,0.26
2014-6-17,81.3,71.0,58.8,68.7,63.5,56.5,95,78,62,29.85,29.67,7,2,10,0.00
2014-6-18,82.7,73.9,64.6,71.0,67.2,62.1,93,80,64,29.88,29.75,10,5,14,0.08
2014-6-19,74.2,69.0,64.8,69.2,66.1,62.7,94,90,82,29.95,29.79,13,5,24,1.29
2014-6-20,86.2,73.1,63.5,68.6,64.6,61.4,95,77,46,29.98,29.82,7,1,10,0.01
2014-6-21,86.2,75.1,62.9,67.1,63.4,60.6,94,69,47,29.91,29.83,4,1,8,0.00
2014-6-22,79.1,72.1,66.5,69.0,65.2,62.2,91,79,61,29.91,29.78,4,1,8,0.00
2014-6-23,81.0,73.0,63.8,65.1,62.3,58.8,94,71,49,29.89,29.81,5,1,8,0.00
2014-6-24,81.7,73.1,62.4,65.6,61.5,58.5,90,69,50,29.96,29.88,7,2,11,0.00
2014-6-25,72.7,64.2,57.5,62.3,58.8,55.6,94,83,66,30.08,29.96,5,3,9,0.00
2014-6-26,85.4,70.8,58.6,71.2,63.9,56.1,93,80,55,30.06,29.84,11,3,12,0.01
2014-6-27,81.5,74.5,69.0,71.9,68.6,66.3,93,82,66,29.87,29.71,11,3,18,0.06
2014-6-28,83.4,74.4,69.1,74.3,69.9,60.5,93,86,66,29.75,29.60,12,3,18,0.14
2014-6-29,86.6,75.0,62.2,65.3,57.8,48.0,92,60,27,29.73,29.66,16,8,23,0.00
2014-6-30,80.3,72.6,65.9,60.6,56.4,49.3,77,58,36,29.68,29.53,14,7,19,0.00
2014-7-1,70.4,63.8,56.3,61.5,56.6,51.3,89,78,65,29.89,29.53,12,6,17,0.02
2014-7-2,74.2,63.8,54.7,53.2,50.0,45.0,88,63,37,30.14,29.89,9,4,16,0.00
2014-7-3,77.7,66.6,55.7,54.2,50.5,45.5,89,60,35,30.23,30.13,4,1,8,0.00
2014-7-4,83.0,69.7,56.1,62.5,56.5,49.9,83,64,46,30.27,30.07,10,3,17,0.00
2014-7-5,86.5,75.6,66.3,70.9,66.0,60.6,86,73,53,30.10,29.84,14,7,18,0.00
2014-7-6,88.4,77.5,70.0,75.9,68.4,61.8,94,76,45,29.86,29.70,10,4,16,0.04
2014-7-7,84.4,72.2,62.0,68.6,63.9,58.9,91,76,49,29.79,29.62,7,2,15,0.26
2014-7-8,75.6,67.6,59.2,61.7,57.1,53.1,89,71,47,29.95,29.68,8,4,18,0.00
2014-7-9,80.6,68.7,56.3,60.1,55.2,52.0,88,65,40,30.02,29.95,5,1,9,0.00
2014-7-10,86.5,72.9,56.7,66.4,61.4,54.1,92,69,48,30.05,29.93,10,3,19,0.00
2014-7-11,82.6,73.0,65.3,74.4,67.9,62.0,94,85,69,30.00,29.91,11,4,18,1.50
2014-7-12,76.0,70.8,66.8,70.0,67.6,64.1,94,90,73,30.02,29.93,6,1,8,0.11
2014-7-13,78.0,69.3,61.2,64.5,56.4,48.6,92,66,40,30.01,29.90,9,3,15,0.00
2014-7-14,64.3,60.6,57.4,53.7,51.2,47.4,81,71,62,30.11,29.92,8,4,18,0.00
2014-7-15,72.3,62.4,52.3,54.6,51.6,48.4,90,69,49,30.15,30.05,10,3,13,0.00
2014-7-16,77.9,65.7,52.3,57.0,53.4,49.1,94,68,38,30.11,30.02,4,1,7,0.00
2014-7-17,80.8,68.1,53.3,59.2,56.0,50.7,92,68,43,30.06,29.99,8,2,13,0.00
2014-7-18,79.0,70.0,57.6,64.5,59.8,54.3,89,71,54,30.03,29.92,12,5,19,0.00
2014-7-19,77.7,70.7,65.0,68.2,63.8,60.4,86,79,71,29.93,29.87,10,5,14,0.00
2014-7-20,87.2,77.1,67.1,72.4,68.7,63.7,89,76,60,29.87,29.77,13,6,17,0.00
2014-7-21,93.3,80.7,70.0,79.4,73.4,67.3,92,79,64,29.87,29.73,9,3,16,0.00
2014-7-22,83.1,75.7,68.1,76.8,65.4,57.7,93,72,47,30.18,29.75,10,4,16,0.00
2014-7-23,82.1,70.9,60.4,60.5,56.9,52.7,86,63,40,30.28,30.16,6,2,10,0.00
2014-7-24,83.6,68.2,57.0,67.4,60.3,55.0,94,78,47,30.17,29.84,15,2,21,0.13
2014-7-25,80.9,72.5,63.3,72.9,67.3,60.4,94,84,72,29.92,29.74,11,3,17,0.40
2014-7-26,84.6,75.1,66.6,72.0,66.8,61.0,95,77,51,29.85,29.77,10,3,17,0.00
2014-7-27,74.7,67.2,61.2,64.3,60.6,57.1,94,80,65,30.16,29.82,8,4,18,0.22
2014-7-28,76.2,67.0,61.2,62.9,59.1,54.9,94,78,52,30.25,30.16,6,1,8,0.00
2014-7-29,79.3,68.1,55.7,60.7,57.5,53.2,92,71,48,30.18,30.07,7,1,10,0.00
2014-7-30,80.5,69.5,58.0,62.3,59.0,55.2,91,71,49,30.12,30.05,5,1,11,0.00
2014-7-31,83.1,71.1,58.2,63.7,59.5,55.3,90,69,43,30.07,30.00,5,2,14,0.00
2014-8-1,84.8,72.2,59.3,66.6,62.3,57.0,93,73,47,30.08,30.03,5,1,9,0.00
2014-8-2,85.2,73.6,61.4,66.9,63.2,59.1,93,72,48,30.13,30.07,6,2,9,0.00
2014-8-3,87.2,75.1,62.9,68.6,64.9,60.9,95,73,46,30.12,30.02,4,1,6,0.00
2014-8-4,78.6,70.8,65.2,65.9,62.6,58.0,93,77,55,30.09,30.04,6,3,9,0.00
2014-8-5,79.4,69.5,60.4,64.5,60.1,57.7,92,74,51,30.14,30.08,6,3,11,0.00
2014-8-6,81.8,71.9,62.3,63.1,60.6,58.3,88,69,47,30.10,30.02,6,1,11,0.00
2014-8-7,83.9,73.1,62.7,65.8,61.2,57.7,91,68,44,30.08,30.00,5,1,9,0.00
2014-8-8,82.3,74.0,65.3,65.9,62.3,59.6,88,68,47,30.09,30.02,5,1,10,0.00
2014-8-9,82.9,72.7,65.8,66.1,63.3,61.1,91,73,52,30.10,30.03,5,2,8,0.02
2014-8-10,78.6,70.9,66.1,70.6,66.6,63.3,93,86,73,30.06,29.97,9,2,11,0.24
2014-8-11,76.1,69.0,62.3,65.9,59.5,54.5,93,74,49,30.09,29.98,10,4,17,0.00
2014-8-12,79.6,68.3,54.8,60.9,56.4,52.1,91,68,45,30.12,30.03,6,2,9,0.00
2014-8-13,84.4,71.2,58.5,66.5,61.1,54.7,88,72,51,30.10,30.04,4,2,7,0.00
2014-8-14,79.5,70.8,62.1,64.5,60.1,54.8,81,69,57,30.11,29.97,4,1,8,0.00
2014-8-15,84.5,73.9,65.7,71.0,66.9,63.0,92,80,60,29.99,29.85,8,3,12,0.00
2014-8-16,85.2,73.2,65.1,72.8,68.2,63.3,95,85,63,29.91,29.83,4,2,6,0.00
2014-8-17,81.7,72.5,68.8,75.4,69.8,67.0,95,91,77,29.94,29.83,4,1,8,0.11
2014-8-18,85.8,74.2,67.4,70.3,66.8,64.2,96,80,53,29.84,29.64,9,3,13,0.01
2014-8-19,83.5,72.5,63.7,67.9,65.1,62.2,95,79,55,29.79,29.67,7,2,9,0.00
2014-8-20,85.6,74.0,62.8,69.9,66.8,61.1,95,80,57,29.86,29.79,5,2,8,0.00
2014-8-21,85.2,75.7,69.7,77.1,71.9,67.9,95,88,74,29.85,29.71,6,2,9,0.17
2014-8-22,83.2,74.6,69.6,71.4,69.6,68.1,96,85,66,30.00,29.84,5,2,9,0.01
2014-8-23,76.7,70.8,67.1,71.5,68.2,65.4,95,92,82,30.00,29.86,8,4,14,0.00
2014-8-24,89.0,77.8,68.2,76.8,71.9,64.3,95,83,66,29.86,29.75,7,4,11,0.00
2014-8-25,73.9,66.8,60.4,64.7,58.4,52.7,94,76,57,30.10,29.83,9,3,13,0.00
2014-8-26,74.3,62.9,51.5,59.5,54.4,48.7,90,75,53,30.25,30.10,3,1,7,0.00
2014-8-27,78.4,67.7,58.8,61.6,59.0,56.0,92,75,52,30.24,30.10,5,1,9,0.01
2014-8-28,68.5,64.8,60.3,65.6,61.7,58.0,94,90,81,30.13,29.88,5,2,8,0.05
2014-8-29,75.4,68.7,65.4,72.5,66.9,63.7,96,94,89,29.88,29.74,9,2,11,1.44
2014-8-30,74.4,68.1,62.9,69.4,65.4,61.4,96,91,78,29.88,29.78,7,2,10,0.96
2014-8-31,81.8,70.4,62.3,73.1,66.0,60.8,95,87,69,29.88,29.61,13,4,19,1.33
2014-9-1,76.4,68.2,63.3,64.6,61.8,58.5,96,82,56,29.83,29.63,6,2,9,0.19
2014-9-2,78.6,67.7,56.7,61.6,57.7,53.1,93,72,44,29.92,29.83,8,4,13,0.00
2014-9-3,79.6,68.1,58.6,74.4,64.4,55.7,94,88,81,29.90,29.66,9,3,13,1.51
2014-9-4,83.4,73.8,61.8,75.8,69.8,55.9,95,87,75,29.94,29.54,8,3,11,0.02
2014-9-5,66.2,59.1,52.6,55.5,52.0,49.2,93,78,57,30.24,29.92,6,2,13,0.00
2014-9-6,77.6,62.7,49.9,58.4,52.7,46.8,90,72,44,30.26,30.16,7,3,12,0.00
2014-9-7,77.6,64.3,53.8,59.9,54.0,49.4,85,70,51,30.18,30.01,11,4,16,0.00
2014-9-8,78.8,65.5,56.3,64.0,57.7,51.8,88,77,60,30.01,29.81,11,3,15,0.00
2014-9-9,73.1,65.8,58.3,68.7,63.2,56.8,95,92,86,29.87,29.73,6,1,8,0.19
2014-9-10,63.2,51.6,46.3,61.4,48.6,41.1,95,89,80,30.20,29.71,12,9,19,0.25
2014-9-11,55.3,49.0,42.2,45.9,42.4,39.8,92,78,60,30.46,30.20,6,2,9,0.00
2014-9-12,54.1,47.0,40.2,43.1,40.8,37.5,91,80,57,30.52,30.43,6,2,11,0.03
2014-9-13,61.4,49.0,35.3,44.6,39.6,33.6,94,72,46,30.44,30.19,12,4,16,0.00
2014-9-14,63.7,53.2,43.5,48.1,44.2,40.5,92,73,44,30.21,30.15,8,3,14,0.00
2014-9-15,61.0,53.1,43.8,49.9,45.5,40.6,94,78,49,30.28,30.19,6,1,9,0.14
2014-9-16,68.9,55.0,39.7,51.1,45.0,37.3,94,72,45,30.26,30.02,7,2,9,0.00
2014-9-17,75.7,63.2,52.7,58.7,54.2,49.5,90,74,50,30.03,29.95,5,1,5,0.00
2014-9-18,77.0,61.5,48.5,60.2,53.3,47.1,95,77,48,30.11,29.96,6,2,12,0.00
2014-9-19,78.4,65.6,57.3,69.8,60.8,52.5,92,85,70,29.97,29.65,10,3,17,0.00
2014-9-20,78.5,64.3,55.3,65.7,58.3,53.0,94,82,51,29.92,29.68,10,3,16,0.38
2014-9-21,65.0,56.8,50.6,54.0,51.0,48.1,92,82,64,30.28,29.91,9,3,16,0.01
2014-9-22,74.6,58.3,44.9,54.7,50.1,43.6,95,77,46,30.32,30.16,6,2,11,0.00
2014-9-23,73.8,60.4,48.8,58.6,52.8,46.3,92,78,52,30.23,30.12,9,2,14,0.03
2014-9-24,65.9,61.0,56.4,59.9,57.1,54.1,94,87,78,30.17,30.11,7,2,12,0.17
2014-9-25,81.4,67.5,57.4,67.9,61.5,55.7,95,82,59,30.20,30.12,5,1,9,0.00
2014-9-26,82.8,69.0,57.6,63.2,59.8,55.1,92,74,49,30.17,30.07,5,2,7,0.00
2014-9-27,83.4,70.7,62.1,64.3,61.1,59.0,91,73,46,30.13,30.05,10,2,13,0.00
2014-9-28,83.7,69.3,56.7,63.8,60.0,55.0,95,75,47,30.13,30.02,7,2,12,0.02
2014-9-29,65.5,55.5,45.2,60.9,51.0,42.2,93,85,75,30.16,30.03,8,5,16,0.00
2014-9-30,58.0,49.7,41.3,52.9,45.1,39.7,94,85,72,30.13,29.86,10,5,15,0.00
2014-10-1,63.3,56.4,52.6,56.9,53.0,48.8,95,89,77,29.87,29.77,4,2,8,0.01
2014-10-2,56.6,53.6,49.5,55.4,52.2,48.0,96,95,93,29.90,29.79,5,1,7,0.20
2014-10-3,50.6,43.6,39.5,48.6,34.5,28.0,93,71,50,29.95,29.79,13,8,22,0.02
2014-10-4,49.3,40.8,34.3,34.4,30.9,28.9,84,69,50,29.92,29.78,9,5,15,0.00
2014-10-5,49.1,41.7,33.1,39.4,34.8,29.1,91,77,61,29.78,29.63,8,3,12,0.00
2014-10-6,62.6,48.0,33.2,43.3,37.6,31.0,92,71,42,29.64,29.48,13,6,19,0.00
2014-10-7,59.7,51.5,43.0,45.2,40.6,36.2,87,68,42,29.95,29.55,10,4,13,0.00
2014-10-8,59.1,47.3,38.2,38.9,35.0,31.4,88,65,38,30.17,29.95,8,3,14,0.00
2014-10-9,53.8,42.9,32.7,36.8,33.0,29.0,88,70,44,30.31,30.17,7,2,11,0.00
2014-10-10,52.9,42.8,32.8,38.0,33.9,30.5,93,73,47,30.36,30.27,7,2,11,0.00
2014-10-11,58.8,43.9,30.2,37.5,33.2,28.4,94,69,40,30.31,30.02,9,2,16,0.00
2014-10-12,64.9,50.3,38.8,48.8,39.9,33.3,89,70,36,30.02,29.75,9,2,15,0.00
2014-10-13,53.1,51.3,49.3,50.8,48.9,46.5,95,91,88,29.88,29.78,10,3,17,0.03
2014-10-14,63.4,52.1,43.1,47.1,42.5,37.9,93,73,41,30.06,29.86,12,6,18,0.00
2014-10-15,67.1,50.9,36.6,43.9,39.7,34.8,95,69,37,30.09,29.90,3,0,5,0.00
2014-10-16,71.8,56.1,42.1,50.5,43.3,35.7,84,64,39,29.90,29.61,11,5,16,0.00
2014-10-17,55.1,49.7,42.3,47.5,43.9,39.4,90,81,71,30.15,29.65,10,6,15,0.00
2014-10-18,52.2,44.0,36.4,42.3,39.3,34.3,94,84,66,30.30,30.14,6,2,7,0.00
2014-10-19,71.1,54.4,38.9,49.1,43.4,36.3,92,69,44,30.14,29.84,10,5,14,0.00
2014-10-20,65.4,53.1,41.2,47.0,42.5,38.0,89,69,43,30.13,29.95,8,2,14,0.00
2014-10-21,61.7,50.0,39.6,45.3,41.6,36.9,92,74,53,30.21,30.13,8,4,13,0.00
2014-10-22,65.6,53.1,42.5,49.8,43.8,38.1,85,72,54,30.19,30.01,8,5,18,0.00
2014-10-23,69.9,56.1,47.6,55.8,48.1,41.0,96,78,38,30.04,29.97,7,2,11,0.24
2014-10-24,71.0,57.2,46.8,56.6,47.4,41.0,86,71,49,29.99,29.85,5,2,10,0.00
2014-10-25,62.8,54.1,40.7,45.2,37.3,28.8,79,55,29,30.13,29.96,10,3,19,0.00
2014-10-26,64.6,49.7,34.4,35.4,32.4,29.5,88,56,28,30.09,29.65,10,4,14,0.00
2014-10-27,61.7,49.7,41.1,48.4,41.3,35.4,94,74,54,29.78,29.58,8,2,9,0.05
2014-10-28,45.5,40.9,37.5,41.7,36.8,32.3,98,85,77,30.09,29.76,13,8,20,0.03
2014-10-29,43.1,38.1,35.9,34.9,32.2,30.4,85,79,71,30.25,30.09,8,3,11,0.00
2014-10-30,48.2,40.3,31.7,41.0,34.0,21.3,92,78,57,30.50,30.09,15,5,23,0.00
2014-10-31,38.4,30.9,24.4,22.0,19.5,17.2,80,63,44,30.68,30.50,9,4,12,0.00
2014-11-1,46.1,33.6,22.7,26.1,21.5,16.6,80,63,42,30.57,30.22,8,3,13,0.00
2014-11-2,56.6,45.2,35.2,36.8,30.8,24.0,69,58,42,30.23,29.89,14,4,16,0.00
2014-11-3,52.9,46.6,40.6,45.7,40.5,35.5,88,79,69,29.94,29.78,8,4,15,0.00
2014-11-4,49.2,40.4,30.8,37.1,33.2,27.3,88,76,61,30.10,29.94,13,6,20,0.00
2014-11-5,48.5,39.3,31.1,39.5,34.2,27.7,94,82,62,30.16,29.93,10,4,15,0.03
2014-11-6,41.9,35.6,30.2,34.1,31.4,27.4,96,85,69,30.41,30.16,10,3,13,0.00
2014-11-7,50.3,40.1,30.0,44.6,33.5,27.3,91,78,60,30.28,29.73,13,5,17,0.01
2014-11-8,41.3,37.4,32.0,32.2,27.6,24.6,77,68,56,30.16,29.87,12,6,19,0.00
2014-11-9,39.5,35.2,31.0,32.4,23.4,14.0,84,63,42,29.89,29.80,8,3,12,0.00
2014-11-10,31.0,25.7,22.8,25.0,22.2,15.3,93,87,52,30.07,29.71,17,11,25,0.12
2014-11-11,24.9,21.8,15.6,19.7,17.2,11.9,92,83,72,30.41,30.07,12,7,26,0.00
2014-11-12,24.1,19.2,12.1,19.6,15.6,8.2,88,86,79,30.49,30.40,9,5,14,0.00
2014-11-13,22.0,17.9,12.0,18.7,13.4,8.4,88,82,76,30.55,30.49,10,6,16,0.00
2014-11-14,17.5,8.7,2.0,10.9,4.7,-1.2,87,83,73,30.55,30.46,7,2,10,0.00
2014-11-15,23.2,16.1,3.2,20.4,13.2,-0.5,91,88,83,30.48,30.23,4,1,6,0.03
2014-11-16,18.2,9.8,0.6,15.3,5.8,-3.3,90,83,75,30.23,29.99,10,6,14,0.00
2014-11-17,15.7,9.1,4.4,9.2,4.4,0.2,96,81,71,30.19,30.08,11,7,17,0.00
2014-11-18,18.1,13.5,6.5,14.6,8.6,2.6,87,80,71,30.18,29.85,9,6,12,0.00
2014-11-19,24.4,19.8,12.8,18.6,14.3,8.3,89,79,66,30.12,29.84,14,8,17,0.00
2014-11-20,14.8,8.6,2.9,8.2,4.0,-0.3,86,81,70,30.39,30.12,8,3,11,0.00
2014-11-21,30.1,19.2,2.7,26.2,15.0,-0.8,88,84,77,30.40,29.95,13,5,21,0.00
2014-11-22,40.4,33.1,28.8,39.1,31.4,26.4,96,93,87,29.96,29.53,9,5,14,0.00
2014-11-23,42.5,38.0,29.3,41.4,36.0,25.6,96,93,84,29.54,29.46,8,3,14,0.06
2014-11-24,29.2,17.8,13.0,25.9,13.6,8.7,90,83,78,30.09,29.44,11,7,19,0.00
2014-11-25,25.5,17.9,8.9,18.6,11.4,5.1,86,76,61,30.20,30.08,7,3,8,0.00
2014-11-26,25.3,21.1,4.6,20.8,16.4,-2.2,92,82,71,30.57,30.11,10,5,13,0.01
2014-11-27,7.4,1.6,-6.6,1.4,-3.8,-10.7,85,78,68,30.69,30.37,7,2,9,0.00
2014-11-28,21.4,15.1,4.9,18.7,11.6,1.4,90,86,82,30.37,29.77,8,4,12,0.01
2014-11-29,33.4,25.3,20.0,28.1,22.3,14.5,93,88,79,29.85,29.51,9,4,13,0.00
2014-11-30,19.4,8.5,2.1,14.2,1.9,-3.5,83,74,63,30.66,29.85,10,6,13,0.00
2014-12-1,5.9,0.5,-4.9,-1.9,-8.0,-11.8,76,67,52,30.94,30.50,7,3,13,0.00
2014-12-2,25.0,16.5,4.8,17.9,10.5,-1.9,83,77,72,30.49,30.07,10,5,19,0.00
2014-12-3,19.5,15.4,11.7,11.7,10.0,7.3,89,79,69,30.44,30.15,10,4,14,0.00
2014-12-4,29.9,24.0,16.2,22.8,16.7,11.9,87,74,56,30.44,30.17,7,2,13,0.00
2014-12-5,32.3,28.1,19.3,30.4,25.8,16.8,95,91,87,30.52,30.15,5,1,6,0.00
2014-12-6,29.0,23.2,14.8,22.5,18.2,11.3,92,81,73,30.77,30.52,6,2,8,0.00
2014-12-7,33.3,29.8,24.9,32.0,27.1,20.8,95,89,83,30.61,30.08,12,6,21,0.01
2014-12-8,34.6,27.1,18.4,33.3,23.7,14.0,95,87,80,30.47,30.06,13,6,16,0.00
2014-12-9,23.5,20.0,15.9,20.2,16.7,12.2,92,87,82,30.60,30.47,5,2,9,0.00
2014-12-10,29.7,25.9,19.9,27.3,24.0,18.2,94,92,90,30.51,30.35,8,4,12,0.00
2014-12-11,33.4,30.0,26.9,31.9,28.6,25.5,95,94,93,30.35,30.25,7,3,9,0.00
2014-12-12,37.7,34.8,33.3,36.4,33.1,31.4,96,94,92,30.28,30.12,9,5,14,0.00
2014-12-13,49.6,41.6,33.5,47.4,40.3,32.2,100,95,91,30.13,29.96,5,1,6,0.00
2014-12-14,50.8,48.5,39.4,50.0,47.6,38.4,97,96,96,29.97,29.82,7,2,10,0.00
2014-12-15,39.1,34.8,24.3,38.1,33.7,22.4,97,96,92,30.02,29.75,13,6,22,0.38
2014-12-16,24.4,16.9,9.7,22.7,13.6,6.6,93,87,82,30.44,30.02,10,6,17,0.00
2014-12-17,20.0,12.9,7.7,14.7,9.4,4.9,89,86,79,30.50,30.43,5,2,6,0.00
2014-12-18,21.7,16.5,11.0,18.2,13.0,7.9,89,86,78,30.47,30.37,5,1,6,0.00
2014-12-19,31.2,27.1,21.1,29.7,25.2,18.1,100,92,88,30.39,30.23,4,2,7,0.00
2014-12-20,31.6,30.7,30.2,29.8,28.7,27.4,95,92,89,30.23,30.12,9,4,13,0.00
2014-12-21,36.7,34.0,31.2,35.9,33.0,29.4,97,96,93,30.11,29.74,6,2,8,0.00
2014-12-22,38.0,36.3,34.5,37.2,35.4,33.5,97,96,95,29.74,29.61,9,5,11,0.03
2014-12-23,36.6,35.0,34.0,33.9,33.0,32.5,96,92,88,29.99,29.69,11,7,17,0.00
2014-12-24,34.9,32.4,29.3,32.9,30.8,27.5,96,94,90,29.97,29.67,9,4,14,0.00
2014-12-25,33.0,30.8,28.4,31.5,29.3,26.6,96,94,91,29.96,29.66,10,4,13,0.03
2014-12-26,31.5,28.9,24.8,30.5,26.6,23.1,96,91,84,30.20,29.94,9,6,13,0.04
2014-12-27,24.7,17.0,8.9,23.0,14.3,5.8,94,89,81,30.25,30.14,8,5,11,0.10
2014-12-28,24.2,14.1,5.3,21.8,10.2,2.5,95,84,72,30.54,30.21,6,2,8,0.00
2014-12-29,11.7,4.2,-3.1,5.4,-1.6,-8.3,83,76,63,30.89,30.54,7,3,10,0.00
2014-12-30,1.1,-3.3,-7.4,-5.5,-8.4,-11.4,84,79,70,30.99,30.80,9,4,11,0.00
2014-12-31,13.6,3.9,-7.6,9.7,-1.3,-12.0,92,79,67,30.80,30.14,16,8,21,0.00
2015-1-1,31.2,20.9,10.8,25.1,15.5,2.9,87,80,67,30.32,29.99,9,5,13,0.00
2015-1-2,27.5,19.5,6.7,23.4,14.1,1.0,88,79,68,30.33,30.06,10,4,15,0.00